Location: Corcelles
(46.1547°N, 4.7234°E)
Time: 10:25:49
(UTC+00:00)

Cosmos 2082 Rocket - Pass Details

Date: 14 July 2020
Orbit: 833 x 853 km, 71.0° (Epoch: 05 August)

Event Time Altitude Azimuth Distance (km) Brightness Sun altitude
Exits shadow 00:40:46 11° 128° (SE) 2,416 4.3 -21.1°
Maximum altitude 00:43:34 15° 97° (E) 2,137 4.4 -21.0°
Drops below altitude 10° 00:46:41 10° 64° (ENE) 2,487 5.2 -20.9°
Sets 00:50:11 0° 42° (NE) 3,427 6.5 -20.7°
